www.pogodaiklimat.ru

Погода и климат >> Архив погоды >> Индия >> Пенджаб >> Амритсар


ПОГОДА в Амритсаре

  • Прогноз погоды в Амритсаре
  • Монитор погоды в Амритсаре

АРХИВ ПОГОДЫ в Амритсаре

Время (UTC), дата Ветер
(напр.,м/с)
 
Видим.   Явления Облачность Т
(С)
Тd
(С)
f
(%)
Тe
(С)
Тes
(С)
Комфортность P
(гПа)
Po
(гПа)
Тmin
(С)
Tmax
(С)
R
(мм)
R24
(мм)
S
(см)
21 10.02 штиль 0 2000 м дымка 6/0
[Ac trans Ci sp]
+10.4 +10.4 100 +10 +10 1022.1 993.7
00 11.02 нст 2 2000 м дымка 6/0
[Ac trans Ci sp]
+11.2 +9.2 87 +10 +10 1020.7 992.4
03 11.02 штиль 0 1000 м мгла 8/4 1200 м
[Sc diur, vesp Ac trans]
+10.6 +8.6 87 +10 +11 1023.2 994.8 +7.0 +19.8
06 11.02 СЗ 3 2000 м мгла 6/3 1200 м
[Sc diur, vesp Ac trans]
+18.4 +6.9 47 +19 +24 1022.6 994.9
09 11.02 З 3 2000 м мгла 6/3 1200 м
[Sc diur, vesp Ac trans]
+19.6 +7.5 45 +21 +24 комфорт 1020.0 992.5
12 11.02 нст 1 2000 м мгла 6/3 1200 м
[Sc diur, vesp Ac As]
+18.8 +7.4 47 +20 +20 1019.5 992.0 +20.7
15 11.02 нст 1 2000 м мгла 6/3 1200 м
[Sc diur, vesp Ac As]
+14.8 +8.9 68 +15 +15 1021.2 993.2
18 11.02 штиль 0 2000 м дымка 8/4 1200 м
[Sc diur, vesp Ac As]
+12.6 +10.3 86 +12 +12 1021.5 993.3
21 11.02 штиль 0 2000 м дымка 8/4 1200 м
[Sc diur, vesp Ac As]
+11.3 +11.3 100 -1 -1 1020.7 991.3
00 12.02 штиль 0 2000 м дымка 8/4 1200 м
[Sc diur, vesp Ac As]
+10.2 +10.2 100 +9 +9 1020.1 991.7
03 12.02 штиль 0 1000 м дымка 6/3 1200 м
[Sc diur, vesp Ac As]
+11.4 +8.2 81 +11 +12 1021.9 993.6 +8.2 +20.7
06 12.02 штиль 0 1000 м дым 8/4 1200 м
[Sc diur, vesp Ac As]
+17.0 +8.9 59 +17 +21 1022.6 994.8
09 12.02 З 2 1000 м мгла 9/4 1200 м
[Sc diur, vesp Ac As]
+19.2 +9.4 53 +21 +23 комфорт 1020.7 993.2
12 12.02 штиль 0 2000 м мгла 8/4 1200 м
[Sc diur, vesp Ac As]
+18.2 +11.2 64 +18 +19 1020.1 992.5 +20.1
15 12.02 штиль 0 2000 м дымка 8/4 1200 м
[Sc diur, vesp Ac As]
+14.2 +12.7 91 +14 +14 1022.3 994.2
18 12.02 штиль 0 2000 м дымка 8/4 1200 м
[Sc diur, vesp Ac As]
+13.2 +13.2 100 +13 +13 1023.1 994.9
21 12.02 штиль 0 1000 м дымка 8/4 1200 м
[Sc diur, vesp Ac As]
+10.5 +10.5 100 +10 +10 1022.3 993.9
00 13.02 штиль 0 <50 м туман ?/? +10.3 +10.3 100 +9 +9 1021.6 993.2
03 13.02 нст 1 <50 м туман ?/? +10.8 +10.8 100 +10 +10 1022.9 994.5 +8.6 +20.1
06 13.02 нст 1 2000 м дымка {туман} 6/3 1200 м
[Sc diur, vesp Ac As]
+16.6 +12.6 77 +17 +23 1022.2 994.4
09 13.02 З 3 2000 м мгла 6/3 1200 м
[Sc diur, vesp Ac As]
+21.2 +8.3 43 +22 +26 комфорт 1018.9 991.6
12 13.02 нст 1 2000 м мгла 9/4 1200 м
[Sc diur, vesp Ac As]
+18.6 +13.6 73 +20 +20 1017.3 989.8 +21.9
15 13.02 штиль 0 2000 м дымка 6/4 1200 м
[Sc diur, vesp Ac trans]
+15.6 +15.3 98 +15 +15 1017.2 989.4
18 13.02 штиль 0 2000 м дымка 9/4 1200 м
[Sc diur, vesp Ac trans]
+13.4 +13.4 100 +13 +13 1017.2 989.2
21 13.02 2000 м дымка 9/4 1200 м
[Sc diur, vesp Ac As]
+13.8 +13.8 100 1016.3 988.4
00 14.02 штиль 0 2000 м дымка 8/4 1200 м
[Sc diur, vesp Ac As]
+13.2 +13.2 100 +13 +13 1014.5 986.6
03 14.02 нст 1 1000 м дымка 9/4 1200 м
[Sc diur, vesp Ac As]
+13.2 +12.5 96 +13 +14 1015.1 987.1 +10.7 +21.9
06 14.02 СЗ 5 500 м гроза, ливневой дождь 10/5 900 м
[Cb cap As op]
+14.2 +13.5 96 +12 +13 1017.4 989.5 1
09 14.02 С 6 500 м гроза, ливневой дождь 10/5 900 м
[Cb cap As op]
+14.2 +14.2 100 +12 +13 1014.9 987.0 12
12 14.02 С 6 1000 м гроза, ливневой дождь 10/5 900 м
[Cb cap As op]
+12.4 +12.4 100 +10 +10 1013.8 985.8 +15.0 28
15 14.02 З 2 4000 м дымка {гроза, дождь} 6/3 1050 м
[Sc diur, vesp Ac trans]
+11.4 +11.4 100 +10 +10 1015.9 987.7 30
18 14.02 нст 2 2000 м дымка {гроза, дождь} 9/4 900 м
[Sc diur, vesp Ac As]
+11.4 +11.4 100 +10 +10 1017.1 988.9 30
21 14.02 СЗ 3 <50 м туман ?/? +10.0 +10.0 100 +8 +8 1016.7 988.4 30
00 15.02 В 2 1000 м дымка {туман} 6/3 900 м
[Sc diur, vesp Ac As]
+13.2 +13.2 100 +12 +12 1015.9 987.9 30
03 15.02 нст 2 2000 м дымка 10/5 900 м
[Sc diur, vesp As op]
+12.9 +12.9 100 +12 +12 1018.3 990.2 +8.0 +15.0 30
06 15.02 В 4 4000 м дымка 8/4 1050 м
[Sc diur, vesp Ac trans]
+16.2 +14.1 87 +15 +18 1018.4 990.6
09 15.02 С 3 4000 м дымка 9/4 1050 м
[Sc diur, vesp Ac As]
+17.6 +13.4 76 +18 +20 1016.4 988.8
12 15.02 штиль 0 2000 м дымка 8/4 1050 м
[Sc diur, vesp Ac As]
+16.8 +12.5 76 +17 +17 1015.6 988.0 +17.8
15 15.02 штиль 0 2000 м дымка 8/3 1200 м
[Sc diur, vesp Ac trans]
+13.2 +12.8 97 +13 +13 1016.8 988.8
18 15.02 штиль 0 2000 м дымка 8/4 1200 м
[Sc diur, vesp Ac trans]
+13.2 +13.2 100 +13 +13 1017.9 989.9
21 15.02 штиль 0 <50 м туман ?/? +10.8 +10.8 100 +10 +10 1017.8 989.5
00 16.02 штиль 0 50 м туман ?/? +9.6 +9.6 100 +9 +9 1017.8 989.4
03 16.02 штиль 0 1000 м дымка {туман} 3/3 1200 м
[Sc diur, vesp]
+11.4 +10.6 95 +11 +13 1019.4 991.1 +7.8 +17.8
06 16.02 штиль 0 2000 м дымка {туман} 1/1 1200 м
[Sc diur, vesp]
+17.2 +13.7 80 +17 +30 опасность
простуды
1020.2 992.5
09 16.02 штиль 0 4000 м 4/4 1050 м
[Sc diur, vesp]
+20.0 +10.4 54 +21 +28 комфорт 1018.0 990.6
12 16.02 штиль 0 4000 м мгла 1/1 1050 м
[Sc diur, vesp]
+18.8 +12.0 65 +19 +20 1016.5 989.0 +20.6
15 16.02 штиль 0 4000 м дымка ясно +14.4 +12.2 87 +14 +14 1017.4 989.5
18 16.02 нст 1 2000 м дымка ясно +11.9 +11.9 100 +12 +12 1017.9 989.7
21 16.02 штиль 0 2000 м дымка ясно +10.9 +10.9 100 +10 +10 1015.7 987.5
00 17.02 штиль 0 2000 м дымка 5/0
[Ac trans]
+9.4 +8.6 95 +9 +9 1015.1 986.8
03 17.02 штиль 0 1000 м дымка 9/4 1200 м
[Sc diur, vesp Ac As]
+10.8 +9.6 92 +10 +11 1016.2 988.0 +8.8 +20.6
06 17.02 штиль 0 1000 м дымка 9/4 1200 м
[Sc diur, vesp Ac As]
+14.0 +10.2 78 +14 +17 1017.2 989.3
09 17.02 штиль 0 2000 м мгла 9/4 1200 м
[Sc diur, vesp Ac As]
+17.4 +7.5 52 +17 +20 1013.4 985.9
12 17.02 штиль 0 2000 м дымка 9/4 1200 м
[Sc diur, vesp Ac As]
+16.9 +10.4 66 +17 +17 1011.8 984.3 +18.2
15 17.02 штиль 0 2000 м слаб. морось {дождь} 9/4 1200 м
[Sc diur, vesp Ac As]
+14.6 +10.8 78 +14 +14 1012.9 985.1 0.0
18 17.02 СЗ 4 2000 м в посл. час морось {дождь} 9/4 1200 м
[Sc diur, vesp Ac As]
+12.8 +10.5 86 +11 +11 1013.6 985.6 1

 

Местоположение метеостанции Амритсар (Пенджаб, Индия): широта 31.63 долгота 74.87 высота над уровнем моря 234 м.

В архиве по умолчанию представлена погода в Амритсаре за последнюю неделю. Архивные данные за месяц целиком и за предыдущие месяцы, начиная с января 2011 года, Вы можете получить, выбрав интересующий диапазон дат из раскрывающегося списка и нажав кнопку "Ввод!".


*Определитесь, кто Вы:
робот инопланетянин человек

Внимание! Время в таблицах - всемирное. Для получения местного времени необходимо прибавить поправку, которая равна 5.5 ч.

Смотрите также архив погоды в соседних городах и на ближайших метеорологических станциях:

Погода в Лахоре (Пакистан) (52 км)
Погода в Сиялкоте (Пакистан) (102 км)
Погода в Джамму (Джамму и Кашмир, Индия) (116 км)
Погода в Лудхиане (Пенджаб, Индия) (132 км)
Погода в Уне (Химачал-Прадеш, Индия) (134 км)
Погода в Кангре (Химачал-Прадеш, Индия) (142 км)
Погода в Катре (Джамму и Кашмир, Индия) (151 км)
Погода в Дармсале (Химачал-Прадеш, Индия) (159 км)
Погода в Батоте (Джамму и Кашмир, Индия) (169 км)
Погода в Фейсалабаде (Пакистан) (169 км)

Пояснения к столбцам:

Ветер - указаны скорость ветра в м/с - средняя за 10 мин, порывы в срок и между сроками (в фигурных скобках) и направление, откуда дует ветер: С - северный, СВ - северо-восточный, В - восточный, ЮВ - юго-восточный, Ю - южный, ЮЗ - юго-западный, З - западный, СЗ - северо-западный.
Видимость - горизонтальная дальность видимости в метрах или километрах. При видимости от 1 до 10 км при отсутствии осадков обычно наблюдается дымка, при ухудшении видимости до 1 км и менее - туман. В сухую погоду видимость может ухудшаться дымом, пылью или мглою.
Явления - указаны атмосферные явления, наблюдавшиеся в срок или в последний час перед сроком; фигурными скобками обозначены явления, наблюдавшиеся между сроками (за 1-3 часа до срока); квадратными скобками обозначены град или гололедные отложения с указанием их диаметра в мм.
Облачность - указаны через наклонную черту общая и нижняя облачность в баллах и высота нижней границы облаков в метрах; квадратными скобками обозначены формы облаков: Ci - перистые, Cs - перисто-слоистые, Cc - перисто-кучевые, Ac - высококучевые, As - высокослоистые, Sc - слоисто-кучевые, Ns - слоисто-дождевые, Cu - кучевые, Cb - кучево-дождевые. Подробнее классификацию облаков см. в Атласе облаков (PDF).
T - Температура воздуха - температура, измеренная на высоте 2 м над землей.
Td - Температура точки росы - температура, при понижении до которой содержащийся в воздухе водяной пар достигнет насыщения.
f - Относительная влажность воздуха - влажноcть воздуха, измеренная на высоте 2 м над землей.
Te - Эффективная температура - температура, которую ощущает одетый по сезону человек в тени. Характеристика душности погоды. При расчете учитывается влияние влажности воздуха и скорости ветра на теплоощущения человека.
Tes - Эффективная температура на солнце - температура, которую ощущает человек, с поправкой на солнечный нагрев. Характеристика знойности погоды. Зависит от высоты солнца над горизонтом, облачности и скорости ветра. Ночью, в пасмурную погоду, а также при ветре 12 м/с и более поправка равна нулю.
P - Атмосферное давление - приведенное к уровню моря атмосферное давление.
Po - Атмосферное давление - измеренное на уровне метеостанции атмосферное давление.
Tmin - Минимальная температура - минимум температуры воздуха на высоте 2 м над землей.
Tmax - Максимальная температура - максимум температуры воздуха на высоте 2 м над землей.
R - Количество осадков - Количество выпавших осадков за период времени, мм. При наведении курсора мыши на число - период времени, за который выпало указанное количество осадков.
R24 - Количество осадков - Количество выпавших осадков за 24 часа, мм.
S - Снежный покров - Высота снежного покрова, см. При наведении курсора мыши на число - состояние снежного покрова и степень покрытия местности в баллах.